Zurück zum Katalog

ONEWEB-0394

AktivKommunikationPO
NORAD 50474·PAYLOAD·🇬🇧 United Kingdom

Gestartet Dec 27, 2021 von Baikonur Cosmodrome

Loading…

Nächste Überflüge (nächste 24 Stunden)

TLE

AktuellSource: CelesTrak SupGP

Epoche: Sep 14, 2026, 20:46 UTC

1 50474C 21132F   26257.86542083 -.00000357  00000+0 -90743-3 0  2576
2 50474  87.9167 317.6284 0002111 100.4715 285.2257 13.18685136    18

Verfolge ONEWEB-0394 in Echtzeit mit AllMySat

Download on the App Store